Sandberg, CA

2:21 AM PDT on April 27, 2018 (GMT -0700)
Sandberg

Weather History for KSDB - February, 2013

Change the Weather History Date:

Tuesday, February 19, 2013

  Actual Average Record
Temperature  
Mean Temperature 35 °F 44 °F  
Max Temperature 42 °F 50 °F 72 °F (2015)
Min Temperature 28 °F 38 °F 21 °F (1955)
Degree Days  
Heating Degree Days 30 21  
Month to date heating degree days 330 411  
Since 1 July heating degree days 2173 2576  
Cooling Degree Days 0 0  
Month to date cooling degree days 0 0  
Year to date cooling degree days 0 0  
Moisture  
Dew Point 30 °F    
Average Humidity 76    
Maximum Humidity 92    
Minimum Humidity 59    
Precipitation  
Precipitation 0.04 in 0.14 in 2.26 in (1958)
Month to date precipitation 0.44 2.01  
Year to date precipitation 1.76 4.42  
Since 1 July precipitation 3.13  
Sea Level Pressure  
Sea Level Pressure 29.74 in    
Wind  
Wind Speed 17 mph (SW)    
Max Wind Speed 29 mph    
Max Gust Speed 36 mph    
Visibility 5 miles    
Events Fog , Snow    
T = Trace of Precipitation, MM = Missing Value Source: NWS Daily Summary

Daily Weather History Graph

Daily Weather History Graph

Search for Another Location

Airport or City:

Astronomy

Feb. 19, 2013 Rise Set
Actual Time 6:35 AM PST 5:42 PM PST
Civil Twilight 6:10 AM PST 6:07 PM PST
Nautical Twilight 5:40 AM PST 6:37 PM PST
Astronomical Twilight 5:11 AM PST 7:06 PM PST
Moon 12:24 PM PST (2/19) 2:04 AM PST (2/19)
Length of Visible Light 11h 57m
Length of Day
11h 06m
Waxing Gibbous, 68% of the Moon is Illuminated
Feb 19
Waxing Gibbous
Feb 25
Full
Mar 4
Last Quarter
Mar 11
New
Mar 19
First Quarter

Hourly Weather History & Observations

Time (PST) Temp. Windchill Dew Point Humidity Pressure Visibility Wind Dir Wind Speed Gust Speed Precip Events Conditions
12:21 AM 37.4 °F 28.9 °F 33.8 °F 87% 29.91 in 1.0 mi SSW 13.8 mph - N/A   Mist
12:27 AM 37.4 °F 28.2 °F 33.8 °F 87% 29.91 in 0.8 mi SSW 16.1 mph - N/A   Mist
12:36 AM - - - N/A% - - North - - N/A   Unknown
12:56 AM - - - N/A% - - North - - N/A   Unknown
1:10 AM 37.4 °F 26.9 °F 33.8 °F 87% 29.89 in 0.2 mi SSW 20.7 mph 27.6 mph N/A Fog Fog
1:15 AM 37.4 °F 26.9 °F 32.0 °F 81% 29.89 in 0.8 mi SSW 20.7 mph 28.8 mph N/A   Haze
1:19 AM 37.4 °F 27.2 °F 32.0 °F 81% 29.89 in 1.0 mi SSW 19.6 mph 28.8 mph N/A   Haze
1:25 AM 37.4 °F 26.9 °F 32.0 °F 81% 29.88 in 0.5 mi SSW 20.7 mph 27.6 mph N/A   Haze
1:34 AM 37.4 °F 26.9 °F 33.8 °F 87% 29.89 in 0.2 mi SSW 20.7 mph 27.6 mph N/A Fog Fog
1:48 AM 37.0 °F 27.4 °F 33.1 °F 86% 29.82 in 0.2 mi SSW 17.3 mph 27.6 mph N/A Fog Fog
2:35 AM 35.6 °F 24.5 °F 30.2 °F 81% 29.87 in 0.8 mi South 20.7 mph 29.9 mph N/A   Haze
2:37 AM 35.6 °F 24.5 °F 30.2 °F 81% 29.87 in 1.8 mi South 20.7 mph 29.9 mph N/A   Haze
2:39 AM - - - N/A% - - North - - N/A   Unknown
2:43 AM 35.6 °F 24.2 °F 30.2 °F 81% 29.87 in 7.0 mi South 21.9 mph 28.8 mph N/A   Overcast
2:48 AM 36.0 °F 24.7 °F 30.9 °F 82% 29.81 in 8.0 mi South 21.9 mph 28.8 mph N/A   Overcast
3:40 AM 35.6 °F 24.0 °F 30.2 °F 81% 29.85 in 10.0 mi South 23.0 mph 31.1 mph N/A   Mostly Cloudy
3:48 AM 35.1 °F 23.3 °F 30.0 °F 82% 29.79 in 10.0 mi South 23.0 mph 31.1 mph N/A   Mostly Cloudy
3:53 AM 35.6 °F 23.7 °F 30.2 °F 81% 29.84 in 10.0 mi South 24.2 mph 32.2 mph N/A   Scattered Clouds
4:21 AM 35.6 °F 24.8 °F 30.2 °F 81% 29.86 in 10.0 mi SSW 19.6 mph 28.8 mph N/A   Scattered Clouds
4:30 AM 35.6 °F 24.8 °F 30.2 °F 81% 29.87 in 10.0 mi SSW 19.6 mph - N/A   Mostly Cloudy
4:48 AM 36.0 °F 26.3 °F 30.0 °F 79% 29.82 in 10.0 mi SSW 16.1 mph 24.2 mph N/A   Overcast
5:14 AM 35.6 °F 27.1 °F 28.4 °F 75% 29.87 in 10.0 mi SSW 12.7 mph - N/A   Overcast
5:25 AM 35.6 °F 27.5 °F 28.4 °F 75% 29.88 in 10.0 mi SW 11.5 mph - N/A   Overcast
5:48 AM 35.1 °F 28.6 °F 28.9 °F 78% 29.84 in 10.0 mi SSW 8.1 mph - N/A   Overcast
5:56 AM 35.6 °F 28.6 °F 28.4 °F 75% 29.87 in 10.0 mi SSW 9.2 mph - N/A   Overcast
6:14 AM 33.8 °F 26.4 °F 28.4 °F 81% 29.87 in 10.0 mi WSW 9.2 mph - N/A   Overcast
6:43 AM 35.6 °F 28.0 °F 30.2 °F 81% 29.87 in 1.8 mi West 10.4 mph - N/A   Haze
6:48 AM - - - N/A% - - North - - N/A   Unknown
7:10 AM 35.6 °F 27.1 °F 30.2 °F 81% 29.85 in 7.0 mi SW 12.7 mph - N/A   Overcast
7:14 AM 35.6 °F 26.6 °F 30.2 °F 81% 29.85 in 8.0 mi SW 13.8 mph - N/A   Overcast
7:39 AM 35.6 °F 25.2 °F 28.4 °F 75% 29.85 in 10.0 mi SSW 18.4 mph - N/A   Overcast
7:48 AM 36.0 °F 26.3 °F 28.9 °F 76% 29.82 in 10.0 mi SSW 16.1 mph - N/A   Overcast
8:03 AM 35.6 °F 25.2 °F 30.2 °F 81% 29.85 in 10.0 mi SSW 18.4 mph - N/A   Overcast
8:15 AM 35.6 °F 24.5 °F 30.2 °F 81% 29.85 in 9.0 mi SSW 20.7 mph 29.9 mph N/A   Overcast
8:19 AM 35.6 °F 25.2 °F 30.2 °F 81% 29.85 in 8.0 mi SSW 18.4 mph 28.8 mph N/A   Overcast
8:48 AM 37.0 °F 27.0 °F 30.9 °F 79% 29.81 in 8.0 mi SSW 18.4 mph 25.3 mph N/A   Overcast
9:48 AM 37.9 °F 30.5 °F 32.0 °F 79% 29.81 in 10.0 mi SSW 11.5 mph 23.0 mph N/A   Overcast
10:48 AM 39.9 °F 30.2 °F 32.0 °F 73% 29.79 in 10.0 mi South 20.7 mph 24.2 mph N/A   Overcast
11:30 AM 41.0 °F 31.9 °F 32.0 °F 70% 29.80 in 10.0 mi South 19.6 mph 27.6 mph N/A   Overcast
11:48 AM 41.0 °F 32.2 °F 33.1 °F 73% 29.76 in 10.0 mi South 18.4 mph 28.8 mph N/A   Overcast
12:35 PM 41.0 °F 31.9 °F 30.2 °F 65% 29.77 in 10.0 mi SSW 19.6 mph 26.5 mph N/A   Overcast
12:46 PM 39.2 °F 30.2 °F 32.0 °F 75% 29.77 in 10.0 mi SSW 17.3 mph 27.6 mph N/A   Overcast
12:48 PM 39.9 °F 31.8 °F 30.9 °F 70% 29.73 in 10.0 mi South 15.0 mph 27.6 mph N/A   Overcast
1:48 PM 39.9 °F 31.8 °F 33.1 °F 77% 29.71 in 10.0 mi South 15.0 mph 23.0 mph N/A   Overcast
2:48 PM 37.9 °F 28.9 °F 32.0 °F 79% 29.71 in 8.0 mi South 16.1 mph 20.7 mph N/A   Overcast
2:57 PM 37.4 °F 28.9 °F 33.8 °F 87% 29.74 in 2.0 mi South 13.8 mph 19.6 mph N/A   Haze
3:06 PM 37.4 °F 30.8 °F 33.8 °F 87% 29.73 in 5.0 mi South 9.2 mph 18.4 mph N/A   Haze
3:33 PM 37.4 °F 28.9 °F 32.0 °F 81% 29.72 in 10.0 mi South 13.8 mph - N/A   Overcast
4:18 PM 37.4 °F 28.5 °F 32.0 °F 81% 29.70 in 1.5 mi South 15.0 mph 25.3 mph N/A   Haze
4:44 PM 37.4 °F 27.5 °F 32.0 °F 81% 29.68 in 1.0 mi South 18.4 mph 25.3 mph N/A   Haze
4:48 PM 37.0 °F 26.4 °F 32.0 °F 82% 29.65 in 1.8 mi South 20.7 mph 28.8 mph N/A   Haze
4:54 PM 35.6 °F 25.5 °F 32.0 °F 87% 29.67 in 1.0 mi South 17.3 mph 28.8 mph N/A   Overcast
5:03 PM 35.6 °F 25.2 °F 30.2 °F 81% 29.67 in 2.5 mi South 18.4 mph 26.5 mph N/A   Haze
5:07 PM 35.6 °F 25.5 °F 30.2 °F 81% 29.67 in 5.0 mi South 17.3 mph 26.5 mph N/A   Haze
5:11 PM 35.6 °F 26.6 °F 32.0 °F 87% 29.67 in 1.5 mi SSW 13.8 mph 26.5 mph N/A   Overcast
5:13 PM 35.6 °F 26.6 °F 32.0 °F 87% 29.68 in 0.8 mi SSW 13.8 mph 26.5 mph N/A   Overcast
5:26 PM 35.6 °F 26.2 °F 32.0 °F 87% 29.67 in 0.5 mi South 15.0 mph 20.7 mph N/A Fog Fog
5:30 PM 35.6 °F 26.2 °F 30.2 °F 81% 29.67 in 0.2 mi South 15.0 mph 23.0 mph N/A   Haze
5:48 PM 35.1 °F 25.5 °F 30.9 °F 85% 29.65 in 0.2 mi South 15.0 mph 24.2 mph N/A Fog Fog
6:48 PM 34.0 °F 23.8 °F 30.9 °F 89% 29.63 in 0.2 mi SSW 16.1 mph - 0.01 in Fog , Snow Light Snow
7:48 PM 34.0 °F 24.2 °F 30.9 °F 89% 29.63 in 0.2 mi SW 15.0 mph 23.0 mph 0.00 in Fog , Snow Light Snow
8:18 PM 33.8 °F 25.3 °F 30.2 °F 87% 29.65 in 0.5 mi SW 11.5 mph - 0.00 in Fog , Snow Light Snow
8:29 PM 33.8 °F 25.8 °F 30.2 °F 87% 29.64 in 0.2 mi SW 10.4 mph - 0.00 in Fog , Snow Light Snow
8:33 PM 33.8 °F 25.3 °F 28.4 °F 81% 29.64 in 0.5 mi West 11.5 mph 17.3 mph 0.00 in Fog , Snow Snow
8:41 PM 33.8 °F 26.4 °F 28.4 °F 81% 29.65 in 1.0 mi West 9.2 mph - 0.01 in Snow Light Snow
8:48 PM 33.1 °F 25.5 °F 28.9 °F 85% 29.63 in 0.8 mi WNW 9.2 mph - 0.01 in Snow Light Snow
8:50 PM 33.8 °F 25.3 °F 28.4 °F 81% 29.64 in 1.0 mi NW 11.5 mph 17.3 mph 0.00 in Snow Light Snow
8:56 PM 32.0 °F 22.5 °F 28.4 °F 87% 29.65 in 3.0 mi NNW 12.7 mph 17.3 mph 0.00 in Snow Light Snow
9:12 PM 30.2 °F 17.8 °F 24.8 °F 80% 29.65 in 10.0 mi NNW 19.6 mph 23.0 mph 0.00 in   Overcast
9:24 PM 30.2 °F 16.2 °F 24.8 °F 80% 29.64 in 10.0 mi NNW 25.3 mph 34.5 mph 0.00 in   Overcast
9:48 PM 30.0 °F 16.6 °F 25.0 °F 82% 29.64 in 6.0 mi NW 23.0 mph - 0.00 in Snow Light Snow
9:54 PM 30.2 °F 15.9 °F 24.8 °F 80% 29.64 in 2.0 mi NNW 26.5 mph 32.2 mph 0.00 in Snow Light Snow
10:04 PM 30.2 °F 16.8 °F 24.8 °F 80% 29.64 in 5.0 mi NW 23.0 mph 29.9 mph 0.00 in Snow Light Snow
10:14 PM 30.2 °F 17.4 °F 24.8 °F 80% 29.64 in 9.0 mi NW 20.7 mph 31.1 mph 0.00 in   Overcast
10:21 PM 30.2 °F 17.4 °F 24.8 °F 80% 29.64 in 2.0 mi NW 20.7 mph - 0.00 in Snow Light Snow
10:23 PM 30.2 °F 18.9 °F 24.8 °F 80% 29.64 in 1.2 mi NW 16.1 mph 25.3 mph 0.00 in Snow Light Snow
10:28 PM 30.2 °F 18.1 °F 24.8 °F 80% 29.63 in 0.8 mi NW 18.4 mph 25.3 mph 0.00 in Snow Light Snow
10:48 PM 28.9 °F 16.9 °F 24.1 °F 82% 29.61 in 0.5 mi NW 17.3 mph 33.4 mph 0.01 in Snow Snow
11:01 PM 28.4 °F 15.8 °F 24.8 °F 86% 29.63 in 1.2 mi NW 18.4 mph - 0.00 in Snow Light Snow
11:07 PM 28.4 °F 15.8 °F 24.8 °F 86% 29.63 in 2.0 mi NW 18.4 mph 26.5 mph 0.00 in Snow Light Snow
11:14 PM 28.4 °F 15.8 °F 24.8 °F 86% 29.63 in 3.0 mi NW 18.4 mph 24.2 mph 0.00 in Snow Light Snow
11:17 PM 28.4 °F 16.6 °F 24.8 °F 86% 29.63 in 2.5 mi NNW 16.1 mph 24.2 mph 0.00 in Snow Light Snow
11:22 PM 28.4 °F 17.0 °F 24.8 °F 86% 29.63 in 4.0 mi NW 15.0 mph 23.0 mph N/A Snow Light Snow
11:37 PM 28.4 °F 15.4 °F 23.0 °F 80% 29.62 in 9.0 mi NW 19.6 mph 28.8 mph 0.00 in Snow Light Snow
11:48 PM 28.0 °F 15.3 °F 21.9 °F 78% 29.60 in 8.0 mi NW 18.4 mph 25.3 mph 0.00 in Snow Light Snow